[[[{"header":{"parameterUnit":"kt","parameterCategory":2,"dx":1,"dy":1,"la1":30.253999710083008,"la2":30.299108505249023,"lo1":-89.0895004272461,"lo2":-89.04439544677734,"nx":28,"ny":28,"refTime":"2022-10-03T21:00:00:Z","depth":0,"parameterNumber":1,"parameterNumberName":"U-component_of_WINDS"},"data":[-3.1589,-3.1729,-3.1706,-3.1859,-3.1865,-3.1967,-3.1997,-3.2034,-3.2059,-3.2183,-3.2252,-3.2248,-3.2268,-3.2349,-3.2426,-3.2424,-3.2459,-3.2527,-3.2513,-3.2224,-3.2183,-3.2144,-3.2107,-3.2534,-3.2535,-3.2814,-3.2816,-3.2818,-3.1387,-3.1392,-3.1464,-3.1519,-3.1582,-3.1504,-3.1543,-3.1603,-3.1698,-3.173,-3.1795,-3.1904,-3.1989,-3.1986,-3.2066,-3.2138,-3.2108,-3.2162,-3.2157,-3.2162,-3.1853,-3.1814,-3.2186,-3.2185,-3.2185,-3.2185,-3.2185,-3.2185,-3.1012,-3.1097,-3.1114,-3.1192,-3.1213,-3.1252,-3.1331,-3.1319,-3.1393,-3.1467,-3.1427,-3.1536,-3.1566,-3.1651,-3.1676,-3.1764,-3.1701,-3.1754,-3.1768,-3.1783,-3.1803,-3.1408,-3.1777,-3.1775,-3.1774,-3.1773,-3.1773,0,-3.073,-3.0704,-3.0769,-3.083,-3.0885,-3.0931,-3.0969,-3.1018,-3.0956,-3.1021,-3.1113,-3.1163,-3.1264,-3.1352,-3.1421,-3.1434,-3.1363,-3.1353,-3.139,-3.1411,-3.1423,-3.1421,-3.0921,-3.1342,-3.1338,-3.1336,-3.1334,-3.1332,-3.0352,-3.0453,-3.0457,-3.0508,-3.052,-3.0603,-3.0648,-3.0585,-3.0637,-3.0678,-3.0759,-3.0843,-3.0907,-3.1064,-3.1053,-3.1131,-3.1097,-3.1261,-3.1108,-3.1126,-3.1103,-3.1098,-3.111,-3.1292,-3.1297,-3.1301,-3.1305,0,-3.0143,-3.0099,-3.0246,-3.024,-3.0242,-3.0353,-3.0351,-3.0435,-3.0413,-3.0528,-3.0551,-3.0519,-3.0613,-3.0574,-3.0674,-3.0652,-3.0846,-3.081,-3.0836,-3.0827,-3.0972,-3.096,-3.1442,-3.1503,-3.1057,-3.1062,-3.1065,0,-2.9804,-2.9939,-2.9865,-2.9953,-3.0102,-3.0031,-3.0183,-3.0178,-3.0197,-3.0286,-3.0193,-3.028,-3.0215,-3.0299,-3.0266,-3.0417,-3.0435,-3.0428,-3.0418,-3.0437,-3.0438,-3.0466,-3.0446,-3.0387,-3.0385,-3.0383,-3.0381,0,-2.9481,-2.9597,-2.9739,-2.9759,-2.9765,-2.9835,-2.9843,-2.9861,-2.9907,-2.996,-2.9989,-3.0058,-3.0097,-3.0154,-3.011,-3.0009,-3.0292,-3.0143,-3.0285,-3.0287,-3.035,-3.0347,-3.0783,-3.0378,-3.0377,-3.0376,-3.0376,0,-2.9199,-2.9246,-2.9457,-2.946,-2.9494,-2.9589,-2.9647,-2.9717,-2.9745,-2.9728,-2.9769,-2.9702,-2.9827,-2.9683,-2.9856,-2.9736,-2.9781,-2.9784,-2.9793,-2.9803,-2.9643,-2.9896,-3.0313,-3.0356,-2.9813,-2.9808,-2.9804,0,-2.8844,-2.9042,-2.8979,-2.9182,-2.9268,-2.9154,-2.9259,-2.9283,-2.9268,-2.9342,-2.9327,-2.9414,-2.9297,-2.9318,-2.9409,-2.9398,-2.9555,-2.9376,-2.9494,-2.9499,-2.9491,-2.9873,-2.9945,-3.0225,-2.9743,-2.975,-2.9754,0,-2.8561,-2.8559,-2.86,-2.8618,-2.8633,-2.8704,-2.8825,-2.8891,-2.8944,-2.898,-2.9082,-2.9202,-2.9119,-2.9156,-2.9108,-2.9205,-2.9447,-2.9103,-2.9103,-2.9169,-2.9708,-2.9776,-2.9823,-2.9395,-2.9403,-2.9408,-2.9706,0,-2.815,-2.824,-2.8346,-2.8387,-2.8434,-2.8557,-2.8504,-2.8562,-2.8508,-2.8487,-2.8635,-2.8644,-2.8716,-2.8757,-2.8706,-2.8938,-2.8893,-2.8804,-2.866,-2.8911,-2.9008,-2.9048,-2.852,-2.8515,-2.8512,-2.8508,0,0,-2.7822,-2.7948,-2.7872,-2.7981,-2.8016,-2.7892,-2.8028,-2.8049,-2.8094,-2.8123,-2.8042,-2.8212,-2.8224,-2.8409,-2.8483,-2.8512,-2.8551,-2.8463,-2.8792,-2.8823,-2.8853,-2.8958,-2.8999,-2.8502,-2.85,-2.8499,-2.8498,0,-2.7659,-2.7661,-2.7793,-2.7809,-2.7829,-2.7797,-2.7829,-2.7829,-2.7821,-2.7961,-2.7861,-2.7944,-2.808,-2.8106,-2.8137,-2.8439,-2.8361,-2.8465,-2.8644,-2.8755,-2.8792,-2.8824,-2.8935,-2.8975,-2.8489,-2.8489,-2.849,0,-2.7372,-2.7367,-2.7423,-2.749,-2.7502,-2.7593,-2.7428,-2.7529,-2.7597,-2.746,-2.7601,-2.76,-2.763,-2.7809,-2.7888,-2.7817,-2.8192,-2.8063,-2.8086,-2.8094,-2.8199,-2.8243,-2.8283,-2.7764,-2.7761,-2.7759,0,0,-2.7239,-2.7319,-2.7293,-2.745,-2.7465,-2.7418,-2.746,-2.7408,-2.7432,-2.7443,-2.7438,-2.7469,-2.7547,-2.7601,-2.7672,-2.7876,-2.7879,-2.7976,-2.801,-2.8038,-2.8062,-2.8174,-2.8218,-2.775,-2.775,-2.775,0,0,-2.7176,-2.7149,-2.7087,-2.7261,-2.7285,-2.7272,-2.7373,-2.7299,-2.7355,-2.7335,-2.7257,-2.7262,-2.7429,-2.7432,-2.7319,-2.7621,-2.7479,-2.7505,-2.7612,-2.7654,-2.7688,-2.7684,-2.7154,0,0,0,0,0,-2.6979,-2.7151,-2.7095,-2.7116,-2.72,-2.7303,-2.7314,-2.7249,-2.715,-2.7232,-2.7217,-2.7127,-2.7355,-2.7254,-2.7279,-2.7405,-2.7636,-2.7656,-2.7675,-2.7861,-2.7906,-2.7944,0,0,0,0,0,0,-2.6986,-2.7011,-2.709,-2.7085,-2.7103,-2.7296,-2.7114,-2.7102,-2.714,-2.7121,-2.7133,-2.7127,-2.7078,-2.7237,-2.726,-2.7381,-2.7145,-2.7644,-2.7661,-2.7677,-2.7876,-2.7913,-2.7944,0,0,0,0,0,-2.6992,-2.7012,-2.7163,-2.7082,-2.7098,-2.7054,-2.7107,-2.7095,-2.7124,-2.7098,-2.709,-2.7072,-2.7083,-2.7099,-2.725,-2.7372,-2.7129,-2.7138,-2.7655,-2.7669,-2.7681,-2.7894,0,0,0,0,0,0,-2.6996,-2.7004,-2.7165,-2.7167,-2.701,-2.7042,-2.7044,-2.709,-2.7098,-2.7091,-2.7033,-2.7017,-2.7089,-2.71,-2.7113,-2.7373,-2.7115,-2.7124,-2.713,-2.7666,-2.7676,-2.7686,0,0,0,0,0,0,-2.6993,-2.7007,-2.7166,-2.7078,-2.707,-2.7032,-2.7034,-2.7153,-2.71,-2.7032,-2.7019,-2.7026,-2.7072,-2.7102,-2.7111,-2.73,-2.7105,-2.7114,-2.712,-2.7123,-2.7674,-2.7683,0,0,0,0,0,0,-2.6998,-2.701,-2.7077,-2.7071,-2.7064,-2.709,-2.7136,-2.7228,-2.702,-2.7034,-2.7,-2.699,-2.7077,-2.7085,-2.7111,-2.7297,-2.73,-2.7105,-2.7111,-2.7115,-2.7118,0,0,0,0,0,0,0,-2.7002,-2.6932,-2.7148,-2.7065,-2.7058,-2.7192,-2.7193,-2.7194,-2.7018,-2.701,-2.7002,-2.6994,-2.7055,-2.7065,-2.7074,-2.7294,0,0,-2.7104,-2.7109,0,0,0,0,0,0,0,0,-2.6925,-2.693,-2.7148,-2.7149,-2.7149,-2.7193,-2.7193,-2.7194,-2.7016,-2.701,-2.7003,-2.6997,-2.7058,-2.7065,-2.7073,0,0,0,0,0,0,0,0,0,0,0,0,0,0,0,-2.7148,-2.7149,0,-2.7193,-2.7193,-2.7194,-2.7015,-2.701,-2.7005,-2.7,-2.706,-2.7066,-2.7073,0,0,0,0,0,0,0,0,0,0,0,0,0,0,0,0,0,0,0,0,0,0,0,0,0,0,0,0,0,0,0,0,0,0,0,0,0,0,0,0,0,0,0,0,0,0,0,0,0,0,0,0,0,0,0,0,0,0,0,0,0,0,0,0,0,0,0,0,0]}],[{"header":{"parameterUnit":"kt","parameterCategory":2,"dx":1,"dy":1,"la1":30.253999710083008,"la2":30.299108505249023,"lo1":-89.0895004272461,"lo2":-89.04439544677734,"nx":28,"ny":28,"refTime":"2022-10-03T21:00:00:Z","depth":0,"parameterNumber":2,"parameterNumberName":"V-component_of_WINDS"},"data":[3.9474,3.9459,3.9475,3.9464,3.9475,3.9469,3.9471,3.9476,3.9482,3.9475,3.9473,3.9484,3.9494,3.9493,3.949,3.9494,3.949,3.9476,3.9483,3.9538,3.9546,3.9554,3.9559,3.9476,3.9476,3.9423,3.9423,3.9422,3.9517,3.9529,3.9527,3.9535,3.9534,3.9558,3.9565,3.9562,3.9555,3.9562,3.9561,3.9555,3.955,3.9564,3.9562,3.9553,3.9561,3.9551,3.955,3.9551,3.9611,3.9616,3.9544,3.9544,3.9544,3.9544,3.9544,3.9544,3.9598,3.9588,3.9602,3.96,3.9608,3.9613,3.9605,3.962,3.9617,3.9617,3.9633,3.9624,3.9632,3.9634,3.9636,3.9629,3.9642,3.9633,3.963,3.9627,3.9622,3.9695,3.9629,3.9629,3.9629,3.9629,3.963,0,3.9661,3.9674,3.9673,3.9677,3.9676,3.9679,3.9684,3.9679,3.9708,3.9703,3.9698,3.9696,3.9692,3.9686,3.9686,3.969,3.9709,3.9712,3.9706,3.9697,3.9691,3.9692,3.9789,3.9713,3.9714,3.9714,3.9715,3.9715,3.9742,3.9729,3.9749,3.9746,3.9753,3.9747,3.9746,3.9773,3.977,3.9778,3.9766,3.9762,3.9759,3.9745,3.9757,3.9753,3.9761,3.9731,3.976,3.9754,3.9758,3.9758,3.9756,3.9723,3.9722,3.9721,3.9721,0,3.9786,3.9809,3.9792,3.9813,3.9817,3.9801,3.9817,3.9807,3.9821,3.9808,3.9807,3.9827,3.9819,3.9836,3.9829,3.9838,3.9809,3.9818,3.9807,3.9809,3.9783,3.9784,3.9697,3.9686,3.9775,3.9774,3.9773,0,3.9863,3.9844,3.9878,3.9867,3.9847,3.9874,3.9853,3.9862,3.9869,3.986,3.9886,3.9876,3.99,3.9891,3.9904,3.9883,3.9882,3.9887,3.989,3.9883,3.9882,3.9877,3.988,3.9899,3.9899,3.99,3.99,0,3.9927,3.9923,3.9906,3.9908,3.9926,3.9917,3.9923,3.9931,3.9929,3.9928,3.9927,3.9924,3.9921,3.9917,3.9933,3.9953,3.9909,3.9938,3.9913,3.9913,3.9899,3.9899,3.9821,3.9901,3.9901,3.9901,3.9901,0,3.9991,3.9993,3.9965,3.9981,3.9978,3.9966,3.9966,3.996,3.9965,3.9973,3.9973,3.9991,3.9975,4.0003,3.9981,4.0001,3.9997,4.0,3.9998,3.9995,4.0025,3.9976,3.9901,3.9893,3.9996,3.9997,3.9998,0,4.0059,4.0036,4.0059,4.003,4.0022,4.0053,4.004,4.0044,4.0054,4.0047,4.0056,4.0046,4.0071,4.007,4.0057,4.0065,4.0039,4.0069,4.0053,4.0053,4.005,3.9983,3.9966,3.9917,4.0008,4.0007,4.0006,0,4.0113,4.0135,4.0128,4.0132,4.0143,4.0135,4.012,4.0117,4.0111,4.0112,4.0099,4.0085,4.0103,4.01,4.0113,4.0099,4.0057,4.0118,4.0119,4.0105,4.0015,4.0,3.9992,4.0069,4.0068,4.0067,4.0015,0,4.0202,4.0193,4.0177,4.0182,4.0179,4.0162,4.0182,4.0176,4.0191,4.02,4.018,4.0185,4.0178,4.0173,4.0185,4.0148,4.0155,4.0173,4.0198,4.0155,4.0138,4.0131,4.0223,4.0224,4.0224,4.0225,0,0,4.026,4.0247,4.0271,4.0258,4.0256,4.0288,4.0267,4.0269,4.027,4.0268,4.0284,4.0264,4.0265,4.0238,4.0226,4.0223,4.0217,4.0231,4.0176,4.017,4.0165,4.0147,4.014,4.0226,4.0226,4.0227,4.0227,0,4.0296,4.0303,4.0284,4.0288,4.0294,4.0306,4.0302,4.0312,4.0317,4.0297,4.0319,4.0309,4.0291,4.029,4.0288,4.0236,4.0251,4.0233,4.0199,4.0183,4.0176,4.0171,4.0151,4.0144,4.0229,4.0229,4.0228,0,4.0352,4.0362,4.0354,4.0354,4.0357,4.0347,4.038,4.0367,4.0359,4.0388,4.0367,4.0371,4.0371,4.0343,4.0331,4.0343,4.0281,4.0303,4.0299,4.0297,4.0281,4.0273,4.0266,4.0357,4.0357,4.0358,0,0,4.038,4.0372,4.0388,4.0363,4.0364,4.0381,4.0376,4.039,4.0391,4.0391,4.0396,4.0395,4.0385,4.0377,4.0368,4.0335,4.0335,4.0318,4.0312,4.0307,4.0302,4.0285,4.0278,4.0359,4.0359,4.0359,0,0,4.0392,4.0411,4.0426,4.04,4.0402,4.0414,4.0397,4.0414,4.0408,4.0412,4.043,4.043,4.0404,4.0406,4.0424,4.0377,4.0402,4.0398,4.0376,4.0369,4.0363,4.0361,4.0455,0,0,0,0,0,4.0438,4.0409,4.0423,4.0421,4.0418,4.0407,4.0407,4.0423,4.0442,4.0428,4.0435,4.0452,4.042,4.0437,4.0433,4.0411,4.0378,4.0375,4.0372,4.0336,4.0328,4.0321,0,0,0,0,0,0,4.0438,4.0436,4.0424,4.0434,4.0433,4.0408,4.0443,4.0447,4.0444,4.0448,4.045,4.0452,4.0464,4.044,4.0436,4.0415,4.0456,4.0377,4.0374,4.0371,4.0333,4.0327,4.0321,0,0,0,0,0,4.0438,4.0436,4.0428,4.0434,4.0434,4.0449,4.0445,4.0448,4.0445,4.0455,4.0458,4.0458,4.0463,4.0461,4.0438,4.0416,4.0459,4.0457,4.0375,4.0373,4.0371,4.033,0,0,0,0,0,0,4.0438,4.0438,4.0428,4.0428,4.0447,4.0451,4.0452,4.0448,4.0453,4.0455,4.0464,4.0467,4.0462,4.046,4.0459,4.0416,4.0461,4.0459,4.0458,4.0373,4.0371,4.037,0,0,0,0,0,0,4.0439,4.0438,4.0428,4.0443,4.0445,4.0452,4.0454,4.0435,4.0453,4.0462,4.0464,4.0465,4.0463,4.046,4.0459,4.0429,4.0462,4.0461,4.046,4.0459,4.0372,4.037,0,0,0,0,0,0,4.0439,4.0438,4.0443,4.0445,4.0447,4.0452,4.0436,4.0431,4.0469,4.0461,4.0472,4.0474,4.0461,4.0461,4.0458,4.043,4.0429,4.0462,4.0461,4.0461,4.046,0,0,0,0,0,0,0,4.0439,4.044,4.0426,4.0446,4.0448,4.0432,4.0432,4.0432,4.0469,4.0471,4.0472,4.0473,4.047,4.0468,4.0467,4.043,0,0,4.0462,4.0462,0,0,0,0,0,0,0,0,4.0441,4.044,4.0426,4.0426,4.0426,4.0432,4.0432,4.0432,4.0469,4.0471,4.0472,4.0473,4.0469,4.0468,4.0467,0,0,0,0,0,0,0,0,0,0,0,0,0,0,0,4.0426,4.0426,0,4.0432,4.0432,4.0432,4.047,4.0471,4.0471,4.0472,4.0469,4.0468,4.0467,0,0,0,0,0,0,0,0,0,0,0,0,0,0,0,0,0,0,0,0,0,0,0,0,0,0,0,0,0,0,0,0,0,0,0,0,0,0,0,0,0,0,0,0,0,0,0,0,0,0,0,0,0,0,0,0,0,0,0,0,0,0,0,0,0,0,0,0,0]}]]]